Other Public Products
Issued by NWS Charleston, SC

Current Version | Previous Version | Graphics & Text | Print | Product List | Glossary On
Versions: 1 2 3 4 5 6 7 8 9 10 11 12 13 14 15 16 17 18 19 20 21 22 23 24 25 26 27 28 29 30 31 32 33 34 35 36 37 38 39 40 41 42 43 44 45 46 47 48 49 50
000 FPUS82 KCHS 271427 OPUCHS TEST...KCHS/KSAV Gateway Observations...TEST National Weather Service Charleston SC 1000 AM EDT THU JUL 27 2017 NOTE: "fair" indicates few or no clouds below 12,000 feet with no significant weather and/or obstructions to visibility. SCZ050-WAZ558-NCZ071-TXZ119-213-PAZ071-DCZ001-FLZ074-172-MI076- NYZ176-178-MAZ016-IL014-TNZ027-NJZ106-GAZ044-MD014-271500- ...Gateway Observations for Charleston International... CITY SKY/WX TMP DP RH WIND PRES REMARKS Chas Airport HVY RAIN 77 74 90 SW8 30.08R FOG Seattle DRIZZLE 57 54 89 SW5 30.14S Charlotte PTSUNNY 80 73 79 SW6 30.10S Dallas DFW MOSUNNY 85 72 65 SW10 30.02R HX 91 Dallas Love MOSUNNY 84 71 65 SW6 30.03R Philladelphia CLOUDY 76 68 76 S8 30.02F Wash National CLOUDY 78 70 76 SW9 30.01F Baltimore PTSUNNY 75 69 81 SW5 30.01F Miami MOSUNNY 89 76 65 E9 30.03R HX 100 Detroit PTSUNNY 76 67 73 CALM 29.94F Newark CLOUDY 73 64 73 SW9 30.02F Laguardia CLOUDY 75 62 64 W13 30.02F J F K PTSUNNY 73 65 75 SW9 30.04F Boston Logan CLOUDY 67 59 75 SW12 30.01 Ft. Lauderdale PTSUNNY 87 77 72 SE10 30.02R HX 99 Chicago O`Hare PTSUNNY 77 68 73 NE13 29.94R Chicago Midway PTSUNNY 80 70 71 N9 29.93S Houston Bush MOSUNNY 83 76 79 SW3 30.07R HX 91 Houston Hobby MOSUNNY 85 76 74 SW6 30.07R HX 94 Nashville PTSUNNY 85 73 67 SW5 30.04S HX 91 Atlanta MOSUNNY 81 73 76 CALM 30.11S $$ GAZ044-118-TXZ119-213-NCZ071-DCZ001-MDZ014-506-PAZ021-071-NJZ106- NYZ176-178-MAZ106-OHZ011-021-055-MIZ076-KYZ091-ILZ014-INZ047- MNZ060-ONZ431-271500- ...Gateway Observations for Savannah International... CITY SKY/WX TMP DP RH WIND PRES REMARKS Savannah Arpt CLOUDY 77 73 87 CALM 30.06S Atlanta MOSUNNY 81 73 76 CALM 30.11S Charlotte PTSUNNY 80 73 79 SW6 30.10S Dallas DFW MOSUNNY 85 72 65 SW10 30.02R HX 91 Houston Bush MOSUNNY 83 76 79 SW3 30.07R HX 91 Wash National CLOUDY 78 70 76 SW9 30.01F Wash Dulles PTSUNNY 77 69 76 SW7 30.00F Baltimore PTSUNNY 75 69 81 SW5 30.01F Philadelphia CLOUDY 76 68 76 S8 30.02F Newark CLOUDY 73 64 73 SW9 30.02F Laguardia CLOUDY 75 62 64 W13 30.02F J F K PTSUNNY 73 65 75 SW9 30.04F Boston CLOUDY 67 59 75 SW12 30.01 Pittsburg CLOUDY 74 64 71 W3 29.99F Akron CLOUDY 75 63 66 SW7 29.99F Cleveland CLOUDY 76 65 68 S6 29.98F Cincinnati CLOUDY 77 76 96 W6 29.97F Columbus CLOUDY 74 67 80 S5 29.95F Detroit PTSUNNY 76 67 73 CALM 29.94F Chicago O`Hare PTSUNNY 77 68 73 NE13 29.94R Minneapolis SUNNY 75 61 61 NE5 30.07S Indianapolis CLOUDY 75 72 90 SW7 29.95F Toronto Canada LGT RAIN 68 64 88 W3 29.95F $$

USA.gov is the U.S. government's official web portal to all federal, state and local government web resources and services.